Terug naar catalogus

STARLINK-2672

ActiefCommunicatieVLEO
NORAD 48650·PAYLOAD·🇺🇸 United States

Gelanceerd May 26, 2021 vanaf Cape Canaveral Space Force Station

Loading…

Volgende Passages (komende 24 uur)

TLE

VersSource: CelesTrak SupGP

Epoch: Sep 14, 2026, 21:30 UTC

1 48650C 21044N   26257.89631944 -.00008151  00000+0 -26206-3 0  2572
2 48650  53.1582 313.4235 0001060  86.0002 248.6711 15.31712808    19

Volg STARLINK-2672 in realtime met AllMySat

Download on the App Store